Vorticity
-13 -20 -26 -28 -27 -23 -18 -13 -8 -5 -2 1 2 4 5 7 7 8 8 9 10 10 9 9 9 9 9 9 9 8 8 7 7 7 7 7 7 7 6 6 6 6 6 6 6 6 6 7 6 6 6 6 6 6 6 5 5 5 5 5 5 5 4 4 2 2 2 2 3
-24 -29 -31 -32 -30 -27 -22 -15 -8 -3 0 2 2 3 4 6 7 7 8 8 9 9 9 9 9 9 9 9 8 8 7 7 7 7 7 7 7 7 7 6 6 6 6 6 6 6 6 6 7 7 6 6 6 5 5 5 4 4 4 5 4 3 2 2 1 2 2 3 4
-8 -13 -15 -16 -15 -12 -9 -4 2 5 8 9 8 6 5 6 7 7 7 7 8 8 8 8 8 8 8 8 8 8 7 6 6 7 7 7 7 7 7 7 6 6 6 6 6 6 6 6 6 6 6 5 5 4 4 4 5 4 3 1 0 0 1 1 2 2 4 5 6
25 20 17 15 13 13 13 15 16 16 16 15 14 12 10 8 8 7 7 7 7 7 7 8 8 8 8 7 7 7 7 6 6 6 6 7 7 7 7 7 6 6 6 6 6 6 5 5 5 5 4 4 4 4 4 3 3 3 3 2 0 0 1 2 2 3 5 6 6
37 35 34 32 30 29 28 27 25 23 21 18 17 16 14 12 10 9 8 7 7 6 6 6 7 7 7 7 7 7 6 6 6 6 6 6 7 7 7 7 7 6 6 6 6 6 6 7 6 5 5 5 5 4 4 2 2 2 2 2 3 3 3 4 4 4 5 5 4
23 26 27 30 29 30 30 31 28 26 23 20 19 17 16 14 13 11 9 8 7 7 6 6 6 6 6 6 6 6 6 5 5 5 5 5 6 6 7 7 7 7 6 6 6 6 7 12 8 7 6 5 5 5 4 3 3 4 4 5 6 7 7 6 5 5 5 4 4
12 14 16 19 21 23 25 26 26 24 23 21 19 18 17 16 14 13 12 11 10 8 7 7 6 6 6 6 6 6 5 5 5 4 4 5 5 6 6 7 7 7 7 7 7 5 2 -3 2 5 6 6 5 5 5 5 5 5 6 8 8 8 7 6 6 5 4 4 4
8 8 8 9 10 12 15 18 19 20 20 20 19 18 17 16 16 15 14 13 12 11 10 9 8 7 6 6 6 5 5 5 4 4 4 4 5 5 6 6 7 7 7 7 7 6 6 6 6 6 6 6 5 5 5 6 6 6 7 9 7 6 6 6 6 6 5 4 5
10 8 6 5 5 5 7 10 13 15 17 19 19 19 18 17 16 16 15 14 14 13 12 11 10 9 8 7 6 6 5 5 5 4 4 4 4 5 6 6 6 7 7 7 7 7 7 7 7 7 6 6 6 6 6 7 7 7 7 5 4 5 6 7 6 6 5 4 4
13 11 9 8 6 5 5 5 7 10 13 16 17 19 19 18 18 17 16 15 15 15 14 14 13 12 11 10 9 8 7 6 6 5 5 5 5 5 5 6 6 6 6 7 6 6 7 7 7 7 7 6 6 7 7 8 8 8 8 7 7 6 7 7 6 5 5 4 4
15 14 13 12 11 9 8 6 6 7 8 10 13 15 17 18 18 18 17 17 16 16 16 16 15 14 13 12 11 10 9 8 7 7 6 6 6 6 6 6 6 6 6 7 7 7 7 7 7 7 6 7 7 7 8 8 8 8 8 8 8 7 6 6 5 5 5 5 5
14 15 15 15 14 13 12 11 9 8 7 7 8 10 13 15 16 17 17 17 17 17 17 17 17 16 15 14 13 12 11 10 9 8 8 7 7 7 6 6 6 7 7 7 7 7 7 7 7 7 7 7 7 7 7 7 8 8 8 7 8 7 7 6 5 5 5 6 6
13 14 14 15 15 15 14 14 13 11 10 9 8 8 9 11 13 14 15 16 17 17 18 18 18 18 17 16 15 14 13 12 11 10 9 9 8 8 8 7 7 7 7 7 7 7 8 8 8 7 7 7 7 7 7 7 8 8 8 7 8 8 9 8 7 7 7 8 8
13 13 13 13 14 14 15 15 14 14 13 12 10 9 9 9 10 11 12 13 14 16 17 18 19 19 19 18 16 15 14 13 13 12 11 10 10 9 9 8 8 8 8 8 8 8 8 8 8 8 7 7 7 7 8 8 8 8 8 9 9 9 9 9 8 8 8 8 7
14 14 13 13 13 13 14 14 14 14 14 14 13 12 10 9 9 8 9 10 11 12 14 16 17 19 19 19 18 17 16 15 14 13 12 12 11 10 10 9 9 8 8 8 8 8 8 8 8 8 8 8 7 7 8 8 8 8 9 10 9 8 8 8 8 9 8 5 5
16 15 14 14 13 13 13 13 13 13 14 14 14 13 12 11 10 9 8 8 9 10 11 13 15 16 18 19 19 18 17 16 15 14 13 12 12 11 11 10 10 9 8 8 8 8 8 8 8 8 8 8 8 7 7 7 7 8 8 8 8 7 6 6 6 6 6 4 4
18 17 16 15 14 14 13 13 13 13 13 13 13 13 13 13 12 11 10 8 8 8 9 10 12 14 15 17 18 18 18 17 16 15 14 13 12 12 11 11 10 10 9 9 9 9 9 9 9 9 8 8 7 7 6 6 7 7 5 4 4 4 4 5 5 4 3 3 5
20 19 18 17 16 15 14 13 13 12 12 12 12 13 13 13 13 12 11 10 9 9 9 9 10 11 13 14 16 17 17 17 16 15 14 13 13 12 11 11 11 10 10 10 10 9 9 9 9 9 9 9 9 9 8 8 7 6 4 2 2 3 4 4 4 4 4 4 5
22 21 21 20 19 17 16 15 14 13 12 12 12 12 12 13 13 13 12 12 11 10 9 9 9 10 11 12 13 15 16 16 16 15 14 14 13 12 12 12 11 11 11 11 10 10 10 9 9 9 9 9 10 10 10 10 8 7 6 5 5 5 6 6 5 5 5 6 6
23 23 23 22 21 20 19 17 16 14 13 12 12 12 12 12 13 13 13 13 12 11 10 9 9 9 9 10 11 13 14 15 15 15 14 14 13 13 12 12 12 11 11 11 11 10 10 10 10 9 9 9 9 10 10 10 10 9 8 8 8 8 7 7 6 6 6 6 6
22 23 24 24 23 22 21 20 18 17 15 14 13 12 12 12 13 13 14 13 13 12 12 11 10 9 9 9 10 11 12 13 14 14 14 13 13 13 12 12 12 11 11 11 11 11 10 10 10 10 10 10 9 9 10 10 10 9 9 9 8 8 7 7 7 7 7 6 6
21 23 24 24 24 24 23 22 21 19 18 16 15 14 13 13 13 13 14 14 14 13 13 12 11 11 10 10 10 11 11 12 13 13 13 13 13 12 12 12 11 11 11 11 11 11 11 11 11 11 11 10 10 10 9 9 9 9 8 8 8 7 7 7 7 7 6 6 6
19 21 23 24 24 24 24 23 22 22 20 19 18 16 15 14 14 14 14 15 15 14 14 14 13 12 12 11 11 11 11 11 11 12 12 12 12 12 12 11 11 11 11 11 11 11 11 11 11 11 11 11 10 10 10 9 8 8 8 8 8 7 7 7 6 6 6 7 7
18 20 21 23 24 24 24 24 24 23 22 21 20 19 17 16 15 15 15 15 15 15 15 15 14 14 13 12 12 11 11 11 11 11 11 11 11 11 11 11 11 11 11 11 11 11 11 11 11 11 11 11 11 10 10 9 9 8 8 8 8 7 7 6 6 6 6 6 7
17 19 20 22 23 23 24 24 24 24 23 22 22 20 19 18 17 16 15 15 16 16 16 16 15 14 13 12 12 11 11 11 11 10 10 11 11 11 11 10 11 11 11 11 11 11 11 11 11 11 11 11 10 10 10 9 9 9 8 8 7 7 6 6 6 7 7 7 7
16 18 19 20 21 22 23 23 24 24 23 23 22 21 20 19 18 17 16 16 16 16 16 15 14 13 13 12 11 11 11 10 10 10 10 10 10 10 10 10 10 10 10 10 11 11 11 11 11 11 10 10 10 9 9 9 8 8 8 7 7 7 6 6 7 7 7 8 8
15 17 19 20 20 21 22 23 23 23 23 23 22 22 21 20 19 18 17 16 15 15 15 15 14 13 12 12 11 10 10 10 10 10 10 10 10 9 9 10 10 10 10 10 10 10 10 10 10 10 10 9 9 8 8 8 7 7 7 6 6 7 7 7 7 7 8 8 8
14 17 18 19 20 21 21 22 23 23 23 23 22 22 21 20 19 18 18 17 15 15 14 15 15 14 13 12 11 11 10 10 10 10 10 9 9 9 9 9 9 9 9 9 9 9 9 9 9 9 8 8 8 8 7 7 6 6 6 6 7 7 8 8 8 8 8 8 8
14 16 18 20 20 21 21 22 22 23 23 23 23 22 21 20 20 19 18 16 15 14 15 15 16 16 15 14 13 12 11 11 10 10 10 9 9 9 9 9 9 9 9 9 9 8 8 8 8 8 8 7 7 7 6 6 6 6 7 7 8 8 9 9 9 9 9 9 8
15 17 19 20 21 21 22 22 23 23 23 23 23 22 22 21 21 19 18 17 17 17 16 16 16 16 16 15 14 13 12 11 10 10 9 9 9 9 9 9 9 9 8 8 8 8 7 7 7 7 7 7 6 6 6 7 7 8 8 9 9 10 10 10 10 9 9 8 7
16 18 20 21 21 21 22 22 23 24 24 24 23 22 22 21 21 20 18 17 17 17 16 15 16 17 18 16 15 13 13 12 11 10 10 9 10 10 9 9 9 8 8 7 7 7 7 6 6 6 6 6 7 7 8 8 9 9 10 10 10 10 10 9 9 8 8 7 6
18 19 20 21 21 21 22 22 23 24 26 27 27 26 24 22 20 20 19 19 19 17 16 14 12 13 15 16 15 14 14 14 13 11 10 10 10 9 9 9 8 8 7 7 7 7 7 7 7 7 7 8 8 9 10 10 10 10 10 10 10 9 9 8 8 7 7 6 6
20 20 21 21 21 21 21 22 23 24 27 31 35 36 34 31 25 21 19 19 19 18 17 18 15 13 13 15 15 14 13 13 13 12 11 10 10 9 9 9 8 8 8 8 9 9 9 9 9 9 9 10 10 10 10 10 10 10 9 9 8 8 8 7 7 6 6 6 6
20 20 20 20 20 20 20 20 21 21 22 25 31 34 32 28 25 22 19 17 18 18 19 20 19 18 17 15 14 13 12 12 12 12 12 12 11 10 10 10 10 10 10 10 10 10 10 10 10 10 11 11 10 10 10 9 9 8 8 7 7 7 7 7 7 6 6 6 6
20 19 18 18 19 19 19 19 20 15 8 0 8 16 22 19 17 16 16 13 15 16 16 17 17 15 14 13 13 13 13 13 13 14 14 13 13 12 12 12 12 12 12 11 11 11 11 11 11 10 10 10 9 9 8 8 7 7 7 6 6 6 6 6 6 6 6 6 6
17 15 14 16 17 18 19 20 20 13 1 -12 -7 -3 2 7 10 13 13 12 13 13 14 15 15 15 14 14 14 14 15 15 15 15 14 14 14 14 14 13 13 12 12 11 11 11 11 10 10 9 9 8 8 8 7 7 7 7 6 6 6 6 6 6 6 6 6 6 6
12 11 12 15 15 16 18 20 20 14 5 -3 -4 -5 -5 -0 6 9 10 10 11 12 13 14 15 15 15 15 15 15 15 15 15 14 14 13 13 13 13 12 12 11 10 10 10 10 10 9 9 8 8 8 8 7 7 7 7 7 6 6 6 6 6 6 6 6 6 6 6
11 10 12 15 13 11 11 13 13 11 9 8 6 5 4 6 8 9 8 8 8 10 11 13 13 13 14 14 14 14 13 13 13 12 12 11 11 11 10 9 10 10 9 9 9 9 9 8 8 8 8 8 8 8 7 7 7 7 6 6 6 6 6 6 6 6 6 6 6
12 10 10 14 14 11 8 4 3 5 10 15 14 13 12 11 10 9 8 7 7 7 8 10 10 11 11 11 11 10 10 10 10 10 9 9 9 9 9 8 8 8 8 8 8 8 8 8 8 8 8 8 8 7 7 7 6 6 6 6 6 6 6 6 6 6 6 6 6
12 11 11 15 17 13 7 -2 -1 5 12 16 16 15 13 12 10 9 8 7 7 6 6 7 7 8 8 8 8 7 7 7 7 7 8 8 8 8 8 8 8 8 8 8 8 8 8 8 8 8 8 7 7 7 6 6 6 6 6 6 6 6 6 6 6 6 6 7 7
12 11 11 14 13 8 2 -3 2 8 13 15 14 13 13 11 10 9 8 7 6 6 6 6 6 6 6 6 6 6 6 6 6 6 6 7 7 7 8 8 8 8 8 8 8 8 8 8 7 7 7 7 6 6 6 6 6 6 6 6 6 6 7 7 7 7 7 7 7
Height
5648 5650 5651 5653 5654 5656 5658 5661 5664 5667 5670 5672 5674 5676 5677 5679 5681 5683 5685 5686 5688 5690 5692 5694 5695 5696 5697 5699 5700 5702 5703 5705 5706 5707 5708 5710 5710 5712 5713 5714 5716 5717 5719 5720 5721 5722 5723 5724 5725 5725 5726 5727 5727 5728 5729 5730 5730 5731 5731 5732 5732 5733 5734 5734 5734 5734 5735 5735 5735
5644 5645 5646 5648 5650 5652 5655 5657 5660 5664 5666 5668 5670 5672 5674 5676 5678 5679 5680 5682 5684 5686 5689 5690 5691 5693 5694 5695 5697 5698 5700 5701 5703 5704 5705 5706 5707 5709 5710 5711 5712 5714 5715 5716 5718 5720 5720 5720 5721 5722 5723 5724 5724 5725 5725 5726 5727 5728 5729 5730 5730 5730 5731 5730 5731 5731 5732 5732 5732
5640 5641 5643 5644 5646 5648 5651 5654 5657 5660 5662 5664 5666 5668 5670 5672 5673 5675 5676 5678 5680 5683 5685 5686 5688 5689 5690 5692 5693 5695 5696 5698 5699 5700 5702 5703 5704 5705 5706 5708 5709 5711 5712 5714 5715 5716 5717 5718 5718 5719 5720 5720 5721 5722 5722 5724 5725 5726 5727 5727 5727 5727 5727 5728 5728 5728 5729 5729 5729
5637 5638 5639 5641 5643 5645 5648 5650 5654 5656 5659 5660 5662 5663 5665 5667 5668 5670 5672 5674 5677 5679 5681 5682 5684 5685 5687 5688 5690 5691 5693 5694 5696 5697 5699 5700 5701 5702 5703 5705 5706 5708 5709 5711 5712 5713 5714 5715 5715 5715 5716 5717 5718 5719 5720 5720 5721 5723 5723 5723 5724 5724 5724 5725 5725 5725 5726 5726 5726
5632 5634 5636 5639 5640 5642 5645 5647 5650 5653 5655 5655 5656 5658 5659 5661 5664 5666 5668 5670 5673 5675 5677 5678 5680 5681 5683 5685 5686 5688 5689 5691 5692 5694 5695 5697 5698 5699 5700 5701 5703 5704 5706 5707 5708 5710 5710 5712 5712 5712 5713 5714 5715 5716 5717 5718 5719 5719 5719 5720 5720 5721 5721 5721 5722 5722 5723 5723 5724
5629 5631 5634 5637 5638 5640 5643 5644 5647 5648 5649 5649 5650 5652 5654 5657 5659 5662 5664 5666 5669 5670 5672 5674 5676 5678 5679 5681 5682 5684 5686 5687 5689 5690 5692 5693 5695 5696 5697 5698 5700 5701 5702 5704 5705 5706 5707 5708 5709 5709 5710 5711 5712 5712 5713 5714 5715 5716 5716 5717 5717 5718 5718 5719 5719 5720 5720 5720 5720
5626 5627 5630 5632 5634 5636 5638 5639 5640 5641 5642 5644 5646 5648 5650 5652 5655 5657 5660 5662 5664 5666 5669 5670 5672 5674 5675 5677 5679 5680 5682 5684 5685 5687 5689 5690 5691 5693 5694 5695 5696 5698 5699 5700 5702 5703 5704 5706 5706 5706 5707 5708 5708 5709 5710 5711 5712 5713 5713 5714 5714 5715 5715 5716 5716 5717 5717 5717 5717
5622 5624 5625 5627 5629 5630 5632 5633 5634 5635 5637 5639 5642 5644 5646 5648 5651 5653 5655 5657 5660 5662 5664 5666 5667 5669 5671 5673 5675 5677 5679 5680 5682 5684 5685 5686 5688 5689 5690 5692 5693 5695 5696 5697 5699 5700 5701 5703 5703 5703 5704 5705 5705 5706 5707 5708 5709 5710 5710 5711 5711 5712 5712 5713 5713 5713 5714 5714 5714
5618 5620 5621 5623 5624 5625 5626 5628 5630 5632 5634 5636 5638 5640 5642 5644 5646 5649 5651 5653 5655 5657 5660 5662 5663 5665 5667 5669 5671 5673 5675 5676 5678 5680 5681 5683 5685 5686 5687 5689 5690 5691 5693 5694 5695 5696 5697 5699 5700 5700 5700 5701 5702 5703 5704 5705 5705 5706 5707 5708 5708 5708 5709 5709 5710 5710 5710 5710 5711
5614 5615 5617 5619 5620 5621 5623 5625 5627 5629 5631 5633 5635 5636 5638 5640 5642 5645 5647 5649 5651 5653 5656 5658 5659 5661 5663 5665 5667 5669 5671 5673 5675 5676 5678 5679 5681 5682 5684 5685 5687 5688 5689 5691 5692 5693 5694 5695 5696 5697 5697 5698 5699 5700 5701 5701 5702 5703 5703 5704 5705 5705 5705 5706 5706 5707 5707 5707 5708
5610 5612 5613 5615 5616 5618 5620 5622 5624 5626 5628 5630 5631 5633 5635 5636 5639 5640 5643 5645 5647 5650 5652 5653 5655 5657 5659 5661 5663 5665 5667 5669 5671 5672 5674 5675 5677 5679 5680 5682 5683 5685 5686 5687 5689 5690 5691 5692 5693 5694 5695 5695 5696 5697 5698 5698 5699 5700 5700 5701 5701 5702 5702 5702 5703 5703 5704 5704 5705
5607 5608 5610 5611 5613 5614 5616 5619 5620 5622 5624 5626 5628 5629 5631 5633 5635 5637 5639 5641 5644 5645 5647 5649 5652 5654 5655 5657 5659 5661 5663 5665 5667 5668 5670 5672 5674 5675 5677 5678 5680 5681 5683 5684 5685 5686 5687 5688 5689 5690 5691 5692 5693 5694 5694 5695 5695 5696 5697 5697 5698 5698 5699 5699 5700 5700 5700 5701 5701
5603 5605 5606 5608 5609 5611 5613 5615 5617 5619 5621 5623 5624 5626 5628 5630 5631 5634 5636 5638 5640 5641 5643 5646 5648 5650 5652 5654 5655 5658 5660 5661 5663 5665 5666 5668 5670 5672 5673 5675 5676 5678 5679 5680 5682 5683 5684 5685 5686 5687 5688 5689 5690 5690 5691 5692 5692 5693 5694 5694 5695 5695 5695 5695 5696 5697 5697 5698 5698
5600 5601 5602 5604 5605 5607 5609 5611 5613 5615 5617 5619 5620 5622 5624 5626 5628 5630 5633 5635 5636 5638 5640 5642 5644 5646 5648 5650 5652 5654 5656 5657 5659 5661 5663 5665 5666 5668 5670 5671 5673 5674 5676 5677 5678 5680 5681 5681 5682 5684 5685 5686 5687 5687 5688 5689 5690 5690 5690 5691 5691 5692 5692 5692 5693 5693 5694 5695 5695
5596 5597 5599 5600 5602 5604 5605 5607 5609 5611 5613 5615 5616 5618 5620 5622 5625 5627 5629 5631 5632 5634 5636 5639 5640 5642 5644 5646 5648 5650 5652 5654 5656 5657 5659 5661 5663 5665 5666 5668 5669 5671 5672 5674 5675 5676 5677 5678 5679 5680 5682 5683 5684 5684 5685 5686 5687 5687 5687 5688 5688 5689 5689 5689 5690 5690 5691 5691 5691
5592 5593 5595 5596 5598 5600 5601 5603 5605 5607 5609 5610 5612 5614 5616 5619 5621 5623 5625 5627 5629 5631 5633 5635 5637 5639 5641 5643 5645 5647 5649 5650 5652 5654 5655 5657 5659 5661 5663 5664 5666 5667 5669 5670 5671 5673 5674 5675 5676 5677 5678 5679 5680 5681 5682 5683 5683 5684 5684 5684 5685 5685 5686 5686 5687 5687 5688 5688 5688
5588 5589 5591 5592 5594 5596 5597 5599 5601 5603 5605 5606 5608 5610 5613 5615 5617 5619 5621 5624 5625 5627 5630 5632 5634 5635 5638 5640 5641 5643 5645 5647 5649 5650 5652 5654 5656 5657 5659 5661 5662 5664 5665 5667 5668 5669 5670 5671 5672 5674 5675 5676 5677 5679 5679 5679 5680 5680 5681 5681 5681 5682 5683 5683 5684 5684 5684 5684 5685
5584 5585 5587 5589 5590 5592 5593 5595 5597 5599 5600 5602 5604 5606 5609 5611 5613 5615 5618 5620 5622 5624 5626 5628 5630 5632 5635 5636 5638 5640 5642 5644 5645 5647 5649 5650 5652 5654 5656 5657 5659 5660 5662 5664 5665 5666 5667 5668 5669 5670 5671 5673 5674 5675 5675 5676 5676 5677 5677 5678 5678 5679 5680 5680 5680 5680 5680 5681 5681
5581 5582 5583 5585 5586 5588 5590 5591 5593 5595 5597 5598 5600 5603 5605 5607 5610 5612 5614 5616 5619 5621 5623 5625 5627 5629 5631 5633 5635 5636 5639 5640 5642 5644 5645 5647 5649 5651 5652 5654 5656 5657 5659 5660 5661 5662 5663 5665 5665 5667 5668 5669 5670 5670 5671 5672 5673 5674 5674 5675 5675 5676 5676 5677 5677 5677 5677 5678 5678
5578 5579 5580 5581 5583 5584 5586 5587 5589 5591 5593 5595 5597 5599 5601 5604 5606 5608 5610 5613 5615 5617 5619 5621 5624 5626 5628 5630 5631 5633 5635 5637 5639 5640 5642 5644 5646 5648 5649 5651 5652 5654 5655 5657 5658 5659 5660 5661 5662 5663 5665 5665 5666 5667 5668 5669 5670 5670 5671 5672 5672 5673 5673 5673 5674 5674 5674 5675 5675
5575 5575 5576 5578 5579 5580 5582 5584 5585 5587 5589 5591 5594 5596 5598 5600 5602 5605 5607 5609 5611 5614 5616 5618 5620 5622 5624 5626 5628 5630 5632 5634 5635 5637 5639 5641 5643 5645 5646 5648 5649 5651 5652 5653 5655 5656 5657 5658 5659 5660 5661 5662 5663 5664 5665 5665 5666 5667 5668 5668 5669 5670 5670 5670 5670 5671 5671 5671 5671
5572 5572 5573 5574 5575 5577 5578 5580 5582 5584 5585 5588 5590 5592 5594 5596 5599 5601 5603 5605 5608 5610 5612 5615 5617 5619 5621 5623 5625 5626 5628 5630 5632 5634 5636 5638 5640 5641 5643 5645 5646 5648 5649 5650 5651 5653 5654 5655 5656 5657 5658 5659 5660 5661 5662 5662 5663 5664 5665 5665 5666 5666 5667 5667 5667 5668 5668 5668 5668
5569 5570 5570 5571 5572 5574 5575 5576 5578 5580 5582 5584 5586 5589 5591 5593 5595 5597 5600 5602 5604 5607 5609 5611 5613 5615 5617 5620 5621 5623 5625 5627 5629 5631 5633 5635 5637 5638 5640 5641 5643 5645 5646 5647 5648 5650 5650 5652 5653 5654 5655 5656 5657 5658 5659 5659 5660 5661 5661 5662 5662 5663 5663 5664 5664 5665 5665 5665 5665
5567 5567 5568 5569 5570 5571 5572 5573 5575 5577 5579 5581 5583 5585 5587 5590 5592 5594 5596 5599 5601 5603 5606 5608 5610 5612 5614 5616 5618 5620 5622 5624 5626 5628 5630 5632 5634 5635 5637 5639 5640 5641 5643 5644 5645 5646 5647 5649 5650 5650 5651 5653 5654 5654 5655 5656 5657 5658 5658 5659 5659 5660 5660 5660 5661 5661 5661 5661 5661
5565 5565 5565 5566 5567 5568 5569 5571 5572 5574 5576 5578 5580 5582 5584 5586 5588 5591 5593 5595 5598 5600 5603 5605 5607 5609 5611 5613 5615 5617 5619 5621 5623 5625 5627 5629 5631 5633 5634 5636 5637 5638 5640 5641 5642 5643 5644 5645 5646 5647 5649 5650 5650 5651 5652 5653 5654 5654 5655 5655 5656 5656 5657 5657 5658 5658 5658 5658 5658
5562 5563 5563 5564 5565 5566 5567 5568 5570 5571 5573 5575 5577 5579 5581 5583 5585 5588 5590 5592 5595 5597 5600 5602 5604 5605 5608 5610 5612 5614 5616 5618 5620 5623 5625 5627 5628 5630 5631 5633 5634 5635 5636 5638 5639 5640 5641 5642 5643 5645 5645 5646 5647 5648 5649 5650 5650 5651 5652 5652 5653 5653 5654 5654 5655 5655 5655 5655 5655
5560 5561 5561 5562 5563 5564 5565 5566 5568 5569 5571 5572 5574 5576 5578 5580 5582 5585 5587 5590 5592 5594 5596 5599 5600 5603 5605 5607 5610 5611 5614 5616 5618 5620 5622 5624 5626 5627 5629 5630 5631 5632 5634 5635 5636 5637 5638 5639 5640 5641 5642 5643 5644 5645 5645 5646 5647 5648 5649 5649 5650 5650 5651 5651 5651 5651 5651 5651 5651
5559 5559 5560 5560 5561 5562 5563 5564 5566 5567 5569 5570 5572 5574 5576 5578 5580 5583 5585 5587 5590 5592 5594 5596 5598 5600 5602 5605 5607 5609 5611 5613 5615 5618 5620 5621 5623 5625 5626 5627 5628 5629 5630 5632 5633 5634 5635 5636 5637 5638 5639 5640 5641 5642 5643 5644 5645 5645 5646 5646 5646 5647 5647 5648 5648 5648 5648 5648 5648
5557 5557 5558 5559 5560 5560 5561 5563 5564 5565 5567 5568 5570 5572 5574 5576 5578 5580 5583 5585 5587 5590 5592 5593 5595 5597 5600 5602 5604 5606 5608 5610 5613 5615 5617 5619 5620 5621 5623 5624 5625 5626 5627 5629 5630 5631 5632 5633 5634 5635 5636 5637 5638 5639 5640 5641 5641 5642 5642 5643 5643 5644 5644 5644 5644 5645 5645 5644 5644
5555 5556 5556 5557 5558 5559 5560 5561 5562 5564 5565 5567 5569 5570 5572 5574 5576 5579 5581 5583 5585 5587 5589 5590 5593 5595 5598 5599 5601 5603 5606 5608 5610 5612 5614 5616 5617 5619 5620 5621 5622 5623 5624 5625 5627 5628 5629 5630 5631 5632 5634 5635 5635 5636 5637 5638 5638 5639 5639 5640 5640 5640 5640 5641 5641 5641 5641 5641 5640
5554 5554 5555 5556 5557 5558 5559 5560 5561 5563 5564 5566 5567 5569 5571 5573 5575 5577 5579 5581 5583 5585 5586 5589 5591 5594 5595 5597 5599 5601 5603 5605 5607 5610 5612 5613 5615 5616 5617 5618 5619 5620 5621 5623 5624 5625 5626 5627 5629 5630 5631 5632 5633 5633 5634 5635 5635 5635 5636 5636 5637 5637 5637 5637 5637 5637 5637 5637 5637
5552 5553 5554 5555 5556 5557 5558 5559 5560 5562 5564 5565 5567 5569 5570 5572 5574 5576 5577 5579 5581 5583 5585 5587 5590 5591 5593 5595 5597 5599 5601 5603 5605 5607 5609 5611 5612 5613 5614 5615 5616 5617 5618 5620 5621 5622 5624 5625 5626 5627 5628 5629 5630 5630 5631 5631 5632 5632 5632 5633 5633 5634 5634 5634 5634 5634 5634 5634 5633
5551 5552 5553 5554 5555 5556 5557 5559 5560 5562 5564 5567 5569 5571 5572 5573 5573 5574 5576 5578 5580 5582 5584 5586 5588 5590 5592 5594 5596 5597 5599 5601 5603 5605 5607 5608 5609 5610 5611 5612 5613 5615 5616 5617 5619 5620 5621 5622 5624 5625 5625 5626 5627 5627 5628 5628 5629 5629 5629 5630 5630 5630 5630 5630 5630 5630 5630 5630 5630
5550 5551 5552 5553 5554 5555 5557 5558 5560 5562 5565 5569 5570 5571 5573 5574 5574 5574 5575 5577 5580 5581 5583 5585 5586 5588 5590 5591 5592 5595 5597 5599 5601 5603 5604 5605 5606 5608 5609 5610 5611 5612 5614 5615 5616 5618 5619 5620 5621 5622 5622 5623 5623 5624 5625 5625 5625 5626 5626 5626 5626 5626 5627 5627 5627 5627 5626 5626 5626
5550 5550 5551 5552 5554 5555 5556 5558 5560 5562 5565 5567 5567 5569 5571 5571 5572 5573 5575 5576 5578 5580 5581 5582 5584 5585 5587 5589 5591 5593 5595 5597 5599 5600 5602 5603 5604 5605 5607 5608 5609 5610 5611 5612 5614 5615 5616 5617 5618 5619 5619 5620 5620 5621 5621 5622 5622 5623 5623 5623 5623 5623 5623 5623 5623 5623 5623 5623 5623
5549 5550 5551 5552 5553 5555 5556 5558 5560 5561 5563 5565 5566 5567 5568 5568 5569 5571 5573 5575 5576 5578 5579 5580 5581 5583 5585 5587 5589 5591 5593 5595 5596 5598 5599 5600 5602 5603 5605 5606 5607 5608 5609 5610 5611 5613 5614 5614 5615 5615 5616 5616 5617 5618 5618 5619 5619 5619 5620 5620 5620 5620 5620 5620 5620 5620 5620 5619 5619
5550 5551 5551 5552 5553 5554 5556 5558 5560 5561 5563 5565 5565 5565 5566 5567 5568 5570 5571 5573 5575 5576 5578 5579 5580 5582 5584 5585 5587 5589 5591 5593 5594 5595 5597 5598 5600 5601 5603 5603 5604 5605 5606 5607 5609 5610 5611 5611 5612 5612 5613 5614 5614 5615 5615 5615 5616 5616 5616 5616 5616 5616 5616 5616 5616 5616 5616 5616 5615
5549 5551 5552 5553 5554 5555 5557 5559 5560 5562 5563 5563 5564 5565 5565 5567 5568 5569 5570 5572 5574 5575 5577 5578 5580 5581 5582 5584 5586 5588 5589 5590 5592 5594 5595 5596 5598 5599 5600 5601 5601 5602 5603 5605 5606 5607 5608 5609 5609 5610 5610 5611 5611 5612 5612 5612 5613 5613 5613 5613 5613 5613 5613 5613 5613 5613 5612 5612 5612
5547 5549 5551 5554 5555 5557 5558 5559 5560 5561 5561 5562 5563 5564 5565 5566 5567 5568 5570 5571 5573 5574 5576 5577 5579 5580 5581 5583 5585 5586 5587 5589 5590 5592 5593 5595 5596 5597 5598 5599 5599 5600 5601 5602 5604 5605 5605 5606 5606 5607 5607 5608 5608 5609 5609 5609 5609 5610 5610 5610 5610 5610 5610 5610 5610 5609 5609 5608 5608
5547 5548 5550 5551 5553 5555 5556 5557 5558 5559 5560 5560 5562 5563 5564 5565 5566 5567 5569 5570 5571 5573 5575 5576 5577 5579 5580 5582 5583 5585 5586 5587 5588 5590 5591 5592 5593 5595 5595 5596 5597 5598 5599 5600 5601 5602 5602 5603 5604 5604 5605 5605 5605 5605 5606 5606 5606 5606 5606 5607 5607 5607 5606 5606 5606 5606 5605 5605 5604
5547 5548 5549 5550 5552 5554 5555 5556 5557 5558 5559 5560 5560 5562 5563 5564 5565 5567 5568 5569 5571 5572 5573 5575 5576 5578 5579 5580 5582 5583 5584 5585 5587 5588 5589 5590 5591 5592 5593 5594 5595 5596 5596 5597 5598 5599 5600 5600 5601 5601 5602 5602 5602 5603 5603 5603 5603 5604 5604 5604 5604 5604 5604 5603 5603 5602 5602 5601 5601